WESTFORD NEEDLES *, 3267

Orbit data source: Space-Track

WESTFORD NEEDLES *, 3267 is space debris in LEO originally from a launch on Thu, 09 May 1963 UTC launched from the Air Force Western Test Range (AFWTR). Debris objects in space refer to the collection of defunct objects orbiting the Earth. Examples of debris include non-operational satellites, rocket bodies, and fragments generated from explosions, collisions, or faulty payload assembly.

Loading next visibility...
Identifier
3267, 1963-014CF
Orbit
LEO
Country
Flag of USUS
Related business
Manufacturer
RCA Victor
Mission
Spacecraft
Bus & Motor
Unknown
Mass
Unknown
Launch date (UTC)
1963-05-09 (62 years ago)
Launch vehicle
Unknown
Launch site
Air Force Western Test Range (AFWTR)
Object type
Payload
Rocket body
Debris
Shape & HBR
Unknown shape, 0.1 m
Radar Cross Section
Small (<0.1 m²)

Expand to show TLE details & history
Last TLE update: 1 week ago

TLE from 1 week ago
0 WESTFORD NEEDLES *
1 03267U 63014CF  25301.20843807  .00000473  00000-0  34129-3 0  9991
2 03267  88.3732 107.5803 1687990 243.6581  98.1706 11.33969966516044
Epoch: 2025-10-28T05:00Z
TLE epoch observation values (Epoch: 2025-10-28T05:00:09.049Z)
Latitude
0.00001°
Longitude
-4.25663°
Altitude
2,415.876 km
Speed
6.561 km/s
True Right ascension
07h 10m 19s
True Declination
0° 00' 00"
Sunlit
Object was in daylight at epoch
Visualization orbit readout
Latitude
Unknown
Longitude
Unknown
Altitude
Unknown
Speed
Unknown
Apparent Right ascension
Unknown
Apparent Declination
Unknown
Sunlit
N/A
Visualization observer readout
Local Sidereal Time
08:38:16
Azimuth
Unknown
Elevation
Unknown
Doppler factor
Unknown
Orbital elements
Apogee altitude
3,400.207 km
Perigee altitude
575.813 km
Semi-major axis
8,366.147 km
Eccentricity
0.1688
Inclination
88.3732°
RAAN
107.5803°
Arg. of periapsis
243.6581°
True anomaly
116.44587°
Mean anomaly
98.1706°
Eccentric anomaly
107.39953°
Mean motion
2.83632 °/min
Orbital period
126.93 mins
BSTAR
0.00034129
Loading maneuver chart data...
Computing Atmospheric mass density...

Documentation

Showing up to 5 results
|